Location: Rumah Sambob
(2.9167°N, 113.9167°E)
Time: 10:54:36
(UTC+00:00)

Meteor 2-20 - Pass Details

Date: 06 June 2020
Orbit: 939 x 959 km, 82.5° (Epoch: 06 July)

Event Time Altitude Azimuth Distance (km) Brightness Sun altitude
Rises 21:20:07 0° 355° (N) 3,594 7.7 -13.3°
Reaches altitude 10° 21:22:35 10° 355° (N) 2,654 7.0 -12.8°
Maximum altitude 21:28:40 86° 267° (W) 953 4.4 -11.4°
Drops below altitude 10° 21:34:47 10° 178° (S) 2,676 6.6 -10.0°
Sets 21:37:17 0° 177° (S) 3,625 7.3 -9.4°
